TimeMST,TemperatureF,Dew PointF,Humidity,Sea Level PressureIn,VisibilityMPH,Wind Direction,Wind SpeedMPH,Gust SpeedMPH,PrecipitationIn,Events,Conditions,WindDirDegrees,DateUTC
12:37 AM,41.0,35.6,81,29.90,8.0,SSW,11.5,21.9,0.02,Rain,Light Rain,210,2013-01-28 07:37:00
12:45 AM,39.2,37.4,93,29.90,5.0,SW,10.4,-,0.03,Rain,Light Rain,230,2013-01-28 07:45:00
12:53 AM,39.0,35.1,86,29.79,6.0,SW,19.6,28.8,0.04,Rain,Light Rain,230,2013-01-28 07:53:00
1:07 AM,39.2,35.6,87,29.87,9.0,SSW,9.2,-,0.00,Rain,Light Rain,210,2013-01-28 08:07:00
1:53 AM,39.9,36.0,86,29.77,10.0,SSW,20.7,29.9,0.00,,Mostly Cloudy,210,2013-01-28 08:53:00
2:53 AM,39.9,35.1,83,29.77,10.0,SSW,18.4,27.6,0.02,Rain,Light Rain,210,2013-01-28 09:53:00
3:53 AM,39.9,35.1,83,29.77,10.0,SSW,11.5,-,0.00,,Mostly Cloudy,200,2013-01-28 10:53:00
5:53 AM,36.0,30.9,82,29.78,10.0,SW,20.7,25.3,0.00,,Overcast,230,2013-01-28 12:53:00
6:53 AM,35.1,30.0,82,29.78,10.0,SW,9.2,-,N/A,,Mostly Cloudy,220,2013-01-28 13:53:00
7:53 AM,33.1,27.0,78,29.81,10.0,WSW,13.8,-,N/A,,Scattered Clouds,250,2013-01-28 14:53:00
8:53 AM,34.0,26.1,73,29.81,10.0,WSW,18.4,-,N/A,,Scattered Clouds,240,2013-01-28 15:53:00
10:53 AM,37.0,24.1,59,29.84,10.0,SW,13.8,21.9,N/A,,Scattered Clouds,230,2013-01-28 17:53:00
11:53 AM,37.0,23.0,57,29.86,10.0,West,9.2,-,N/A,,Mostly Cloudy,260,2013-01-28 18:53:00
12:53 PM,37.9,23.0,55,29.84,10.0,WSW,9.2,19.6,N/A,,Mostly Cloudy,240,2013-01-28 19:53:00
1:53 PM,39.0,23.0,53,29.83,10.0,SW,15.0,-,N/A,,Mostly Cloudy,230,2013-01-28 20:53:00
2:53 PM,37.9,23.0,55,29.84,10.0,SW,13.8,-,N/A,,Mostly Cloudy,230,2013-01-28 21:53:00
3:42 PM,32.0,28.4,87,29.90,5.0,NNW,17.3,24.2,0.00,Snow,Light Snow,330,2013-01-28 22:42:00
3:53 PM,32.0,28.0,85,29.87,2.0,NW,17.3,-,0.00,Snow,Snow,310,2013-01-28 22:53:00
4:09 PM,30.2,28.4,93,29.92,0.2,NW,15.0,-,0.01,Fog-Snow,Snow,310,2013-01-28 23:09:00
4:14 PM,30.2,28.4,93,29.92,0.2,NW,11.5,-,0.02,Fog-Snow,Snow,320,2013-01-28 23:14:00
4:53 PM,30.0,28.9,96,29.90,0.5,Calm,Calm,-,0.07,Fog-Snow,Snow,0,2013-01-28 23:53:00
5:08 PM,30.2,26.6,86,29.92,0.8,West,6.9,-,0.00,Snow,Light Snow,260,2013-01-29 00:08:00
5:44 PM,28.4,28.4,100,29.93,0.2,NW,12.7,-,0.02,Fog-Snow,Snow,320,2013-01-29 00:44:00
5:50 PM,28.4,26.6,93,29.93,0.5,NW,13.8,-,0.02,Fog-Snow,Light Snow,320,2013-01-29 00:50:00
5:53 PM,28.0,26.1,92,29.92,0.5,NW,13.8,-,0.02,Fog-Snow,Light Snow,310,2013-01-29 00:53:00
5:58 PM,28.4,26.6,93,29.93,1.0,NW,11.5,-,0.00,Snow,Light Snow,310,2013-01-29 00:58:00
6:06 PM,28.4,26.6,93,29.94,0.5,NW,9.2,-,0.01,Fog-Snow,Snow,320,2013-01-29 01:06:00
6:53 PM,28.9,26.1,89,29.94,0.5,SW,10.4,-,0.02,Fog-Snow,Light Snow,230,2013-01-29 01:53:00
6:58 PM,28.4,24.8,86,29.94,3.0,WSW,11.5,-,0.00,Snow,Light Snow,240,2013-01-29 01:58:00
7:12 PM,30.2,23.0,75,29.94,9.0,WSW,9.2,-,0.00,,Overcast,250,2013-01-29 02:12:00
7:53 PM,28.9,21.9,75,29.94,10.0,WSW,6.9,-,0.00,,Overcast,250,2013-01-29 02:53:00
8:53 PM,28.0,21.0,75,29.94,10.0,West,8.1,-,N/A,,Clear,280,2013-01-29 03:53:00
9:53 PM,27.0,19.0,72,29.95,10.0,WNW,9.2,-,N/A,,Scattered Clouds,290,2013-01-29 04:53:00
10:53 PM,26.1,18.0,71,29.95,10.0,West,8.1,-,N/A,,Clear,280,2013-01-29 05:53:00
11:53 PM,25.0,18.0,75,29.96,10.0,West,8.1,-,N/A,,Clear,270,2013-01-29 06:53:00